When you browse on this site, cookies collect data to enhance your experience and personalize the content and advertising you see.
Visit our Privacy Policy to learn more. By continuing to use the site, you agree to this use of cookies and data.

Hourly Weather Mulchen

Today, 13 July, Monday

Time Temperature Precipitation Wind Pressure Humidity
00:00 +8°C° 0.2 mm 1 mps 750 mmHg 97%
01:00 +7°C° 0.2 mm 1 mps 750 mmHg 96%
02:00 +7°C° 0 mm 1 mps 750 mmHg 96%
03:00 +7°C° 0 mm 1 mps 750 mmHg 96%
04:00 +6°C° 0 mm 0 mps 750 mmHg 96%
05:00 +7°C° 0 mm 1 mps 751 mmHg 96%
06:00 +6°C° 0 mm 1 mps 751 mmHg 96%
07:00 +6°C° 0 mm 1 mps 751 mmHg 97%
08:00 +7°C° 0 mm 1 mps 751 mmHg 94%
09:00 +9°C° 0 mm 1 mps 752 mmHg 91%
10:00 +10°C° 0 mm 1 mps 752 mmHg 88%
11:00 +11°C° 0 mm 1 mps 752 mmHg 85%
12:00 +12°C° 0 mm 1 mps 751 mmHg 81%
13:00 +14°C° 0 mm 1 mps 751 mmHg 78%
14:00 +13°C° 0 mm 1 mps 751 mmHg 81%
15:00 +13°C° 0 mm 1 mps 751 mmHg 85%
16:00 +12°C° 0 mm 1 mps 751 mmHg 88%
17:00 +11°C° 0 mm 1 mps 751 mmHg 91%
18:00 +9°C° 0 mm 1 mps 751 mmHg 93%
19:00 +8°C° 0 mm 1 mps 751 mmHg 96%
20:00 +8°C° 0 mm 1 mps 751 mmHg 95%
21:00 +8°C° 0 mm 1 mps 750 mmHg 95%
22:00 +7°C° 0 mm 1 mps 750 mmHg 94%
23:00 +7°C° 0 mm 1 mps 750 mmHg 94%

Tomorrow, 14 July, Tuesday

Time Temperature Precipitation Wind Pressure Humidity
00:00 +7°C° 0 mm 1 mps 750 mmHg 93%
01:00 +7°C° 0 mm 1 mps 750 mmHg 93%
02:00 +7°C° 0 mm 1 mps 749 mmHg 93%
03:00 +7°C° 0 mm 1 mps 749 mmHg 92%
04:00 +6°C° 0 mm 1 mps 749 mmHg 92%
05:00 +6°C° 0 mm 1 mps 749 mmHg 92%
06:00 +6°C° 0 mm 1 mps 749 mmHg 92%
07:00 +6°C° 0 mm 1 mps 748 mmHg 92%
08:00 +8°C° 0 mm 1 mps 748 mmHg 85%
09:00 +11°C° 0 mm 1 mps 748 mmHg 78%
10:00 +13°C° 0 mm 1 mps 748 mmHg 71%
11:00 +14°C° 0 mm 1 mps 748 mmHg 69%
12:00 +15°C° 0 mm 1 mps 747 mmHg 66%
13:00 +18°C° 0 mm 1 mps 747 mmHg 64%
14:00 +16°C° 0 mm 1 mps 746 mmHg 70%
15:00 +15°C° 0 mm 1 mps 746 mmHg 77%
16:00 +14°C° 0 mm 1 mps 746 mmHg 84%
17:00 +12°C° 0 mm 1 mps 746 mmHg 87%
18:00 +11°C° 0 mm 1 mps 746 mmHg 90%
19:00 +9°C° 0 mm 1 mps 746 mmHg 94%
20:00 +9°C° 0 mm 1 mps 746 mmHg 93%
21:00 +8°C° 0 mm 1 mps 746 mmHg 92%
22:00 +8°C° 0 mm 1 mps 746 mmHg 92%
23:00 +8°C° 0 mm 1 mps 746 mmHg 91%

Day after tomorrow, 15 July, Wednesday

Time Temperature Precipitation Wind Pressure Humidity
00:00 +8°C° 0 mm 1 mps 746 mmHg 90%
01:00 +7°C° 0 mm 1 mps 745 mmHg 89%
02:00 +7°C° 0 mm 1 mps 745 mmHg 88%
03:00 +7°C° 0 mm 1 mps 745 mmHg 87%
04:00 +7°C° 0 mm 1 mps 745 mmHg 86%
05:00 +7°C° 0 mm 1 mps 745 mmHg 85%
06:00 +6°C° 0 mm 0 mps 745 mmHg 85%
07:00 +6°C° 0 mm 0 mps 745 mmHg 84%
08:00 +7°C° 0 mm 0 mps 745 mmHg 80%
09:00 +10°C° 0 mm 1 mps 745 mmHg 77%
10:00 +11°C° 0 mm 1 mps 745 mmHg 73%
11:00 +12°C° 0 mm 1 mps 745 mmHg 74%
12:00 +12°C° 0 mm 1 mps 745 mmHg 75%
13:00 +13°C° 0 mm 1 mps 745 mmHg 76%
14:00 +13°C° 0 mm 1 mps 745 mmHg 79%
15:00 +13°C° 0 mm 1 mps 745 mmHg 82%
16:00 +12°C° 0 mm 1 mps 745 mmHg 85%
17:00 +12°C° 0 mm 1 mps 745 mmHg 88%
18:00 +11°C° 0 mm 1 mps 746 mmHg 92%
19:00 +10°C° 0 mm 1 mps 746 mmHg 95%
20:00 +10°C° 0 mm 1 mps 746 mmHg 94%
21:00 +10°C° 0 mm 1 mps 746 mmHg 94%
22:00 +10°C° 0 mm 1 mps 746 mmHg 93%
23:00 +10°C° 0 mm 1 mps 746 mmHg 93%

16 July, Thursday

Time Temperature Precipitation Wind Pressure Humidity
00:00 +10°C° 0 mm 1 mps 746 mmHg 92%
01:00 +10°C° 0 mm 1 mps 745 mmHg 92%
02:00 +10°C° 0 mm 1 mps 745 mmHg 91%
03:00 +10°C° 0 mm 1 mps 745 mmHg 90%
04:00 +10°C° 0 mm 1 mps 744 mmHg 90%
05:00 +10°C° 0 mm 1 mps 744 mmHg 89%
06:00 +10°C° 0 mm 1 mps 744 mmHg 89%
07:00 +9°C° 0 mm 2 mps 744 mmHg 89%
08:00 +10°C° 0 mm 2 mps 744 mmHg 88%
09:00 +12°C° 0 mm 2 mps 744 mmHg 86%
10:00 +12°C° 0 mm 2 mps 744 mmHg 84%
11:00 +12°C° 0 mm 3 mps 743 mmHg 82%
12:00 +12°C° 0 mm 3 mps 742 mmHg 81%
13:00 +13°C° 0 mm 3 mps 742 mmHg 79%
14:00 +12°C° 0 mm 3 mps 742 mmHg 81%
15:00 +12°C° 0 mm 3 mps 742 mmHg 83%
16:00 +11°C° 0 mm 3 mps 742 mmHg 85%
17:00 +11°C° 0.9 mm 3 mps 742 mmHg 87%
18:00 +11°C° 0.9 mm 3 mps 742 mmHg 89%
19:00 +11°C° 0.9 mm 4 mps 742 mmHg 92%
20:00 +10°C° 3.1 mm 3 mps 742 mmHg 93%
21:00 +10°C° 3.1 mm 3 mps 742 mmHg 94%
22:00 +10°C° 3.1 mm 3 mps 742 mmHg 95%
23:00 +10°C° 4.3 mm 3 mps 742 mmHg 96%

17 July, Friday

Time Temperature Precipitation Wind Pressure Humidity
00:00 +10°C° 4.3 mm 3 mps 742 mmHg 96%
01:00 +10°C° 4.3 mm 3 mps 742 mmHg 97%
02:00 +10°C° 2.3 mm 2 mps 741 mmHg 97%
03:00 +10°C° 2.3 mm 2 mps 741 mmHg 97%
04:00 +10°C° 2.3 mm 2 mps 741 mmHg 97%
05:00 +9°C° 0.2 mm 2 mps 741 mmHg 97%
06:00 +9°C° 0.2 mm 2 mps 741 mmHg 97%
07:00 +9°C° 0.2 mm 2 mps 741 mmHg 96%
08:00 +10°C° 0.5 mm 2 mps 742 mmHg 94%
09:00 +10°C° 0.5 mm 3 mps 742 mmHg 92%
10:00 +11°C° 0.5 mm 3 mps 743 mmHg 89%
11:00 +11°C° 0.7 mm 3 mps 743 mmHg 90%
12:00 +10°C° 0.7 mm 3 mps 743 mmHg 91%
13:00 +10°C° 0.7 mm 3 mps 742 mmHg 92%
14:00 +10°C° 0.8 mm 3 mps 743 mmHg 91%
15:00 +10°C° 0.8 mm 3 mps 743 mmHg 91%
16:00 +10°C° 0.8 mm 3 mps 743 mmHg 90%
17:00 +10°C° 0.5 mm 3 mps 743 mmHg 92%
18:00 +9°C° 0.5 mm 3 mps 744 mmHg 93%
19:00 +8°C° 0.5 mm 3 mps 744 mmHg 95%
20:00 +8°C° 0.7 mm 3 mps 745 mmHg 95%
21:00 +8°C° 0.7 mm 3 mps 745 mmHg 95%
22:00 +8°C° 0.7 mm 3 mps 745 mmHg 96%
23:00 +8°C° 0.4 mm 3 mps 745 mmHg 96%

18 July, Saturday

Time Temperature Precipitation Wind Pressure Humidity
00:00 +8°C° 0.4 mm 3 mps 745 mmHg 96%
01:00 +8°C° 0.4 mm 3 mps 745 mmHg 97%
02:00 +8°C° 0.2 mm 3 mps 746 mmHg 97%
03:00 +8°C° 0.2 mm 3 mps 746 mmHg 97%
04:00 +8°C° 0.2 mm 2 mps 746 mmHg 97%
05:00 +8°C° 0.1 mm 2 mps 746 mmHg 97%
06:00 +8°C° 0.1 mm 2 mps 746 mmHg 96%
07:00 +8°C° 0.1 mm 2 mps 747 mmHg 96%
08:00 +9°C° 0.1 mm 2 mps 747 mmHg 94%
09:00 +9°C° 0.1 mm 2 mps 747 mmHg 93%
10:00 +10°C° 0.1 mm 2 mps 747 mmHg 91%
11:00 +12°C° 0.2 mm 2 mps 746 mmHg 87%
12:00 +12°C° 0.2 mm 2 mps 746 mmHg 83%
13:00 +13°C° 0.2 mm 2 mps 746 mmHg 79%
14:00 +13°C° 0.3 mm 1 mps 745 mmHg 82%
15:00 +12°C° 0.3 mm 1 mps 745 mmHg 86%
16:00 +12°C° 0.3 mm 1 mps 745 mmHg 89%
17:00 +11°C° 1 mm 1 mps 745 mmHg 91%
18:00 +10°C° 1 mm 1 mps 745 mmHg 93%
19:00 +9°C° 1 mm 2 mps 746 mmHg 95%
20:00 +9°C° 0.4 mm 2 mps 746 mmHg 94%
21:00 +9°C° 0.4 mm 2 mps 746 mmHg 93%
22:00 +8°C° 0.4 mm 2 mps 746 mmHg 93%
23:00 +8°C° 0.4 mm 2 mps 746 mmHg 93%
Show more